Location: Landeleau
(48.2273°N, 3.7285°W)
Time: 17:19:09
(UTC+00:00)

Cosmos 1805 - Visible Passes

Search period start: 06 August 2020 00:00
Search period end: 16 August 2020 00:00
Orbit: 524 x 532 km, 82.5° (Epoch: 05 August)

Date Brightness Start Highest point End Pass type
(mag) Time Alt. Az. Time Alt. Az. Time Alt. Az.
06 Aug 5.0 01:35:19 22° ESE 01:36:03 23° E 01:39:11 10° NE visible
06 Aug 4.3 03:10:36 24° WSW 03:11:53 30° WNW 03:15:21 10° N visible
07 Aug 5.1 01:24:26 21° E 01:24:53 22° E 01:27:54 10° NE visible
07 Aug 4.2 02:59:42 28° WSW 03:00:40 32° WNW 03:04:13 10° N visible
08 Aug 5.2 01:13:32 20° E 01:13:44 20° E 01:16:36 10° NE visible
08 Aug 4.1 02:48:48 32° W 02:49:29 34° WNW 02:53:05 10° N visible
09 Aug 5.4 01:02:37 19° E 01:02:37 19° E 01:05:19 10° NE visible
09 Aug 3.9 02:37:53 36° W 02:38:16 37° WNW 02:41:55 10° N visible
10 Aug 5.5 00:51:41 17° E 00:51:41 17° E 00:54:00 10° NE visible
10 Aug 3.8 02:26:57 40° W 02:27:04 41° WNW 02:30:47 10° N visible
11 Aug 5.6 00:40:44 16° ENE 00:40:44 16° ENE 00:42:41 10° NE visible
11 Aug 3.8 02:16:01 44° WNW 02:16:01 44° WNW 02:19:38 10° N visible
12 Aug 5.7 00:29:47 14° ENE 00:29:47 14° ENE 00:31:20 10° NE visible
12 Aug 3.8 02:05:03 46° WNW 02:05:03 46° WNW 02:08:28 10° N visible
13 Aug 5.9 00:18:49 13° ENE 00:18:49 13° ENE 00:19:57 10° NE visible
13 Aug 3.9 01:54:05 47° NW 01:54:05 47° NW 01:57:18 10° N visible
14 Aug 6.0 00:07:51 12° ENE 00:07:51 12° ENE 00:08:32 10° ENE visible
14 Aug 4.0 01:43:07 46° NNW 01:43:07 46° NNW 01:46:09 10° N visible
14 Aug 6.1 23:56:52 10° ENE 23:56:52 10° ENE 23:57:03 10° ENE visible
15 Aug 4.2 01:32:08 44° NNW 01:32:08 44° NNW 01:34:58 10° N visible
